This is the latest recevied weather packets stored in our database for station/object KB1ZFK. If no packets are shown the sender has not sent any weather packets the latest 10 day(s).
| Time | Temp. | Humidity | Pressure | Rain* | Wind** | Luminosity | Snow |
|---|---|---|---|---|---|---|---|
| 1778020998 | 24.44° C | 44% | 1005.2 hPa | 0 mm | - | 21 W/m² | - |
| 1778020695 | 24.44° C | 44% | 1005.3 hPa | 0 mm | - | 25 W/m² | - |
| 1778020392 | 25° C | 43% | 1005.1 hPa | 0 mm | - | 29 W/m² | - |
| 1778020087 | 25° C | 42% | 1005 hPa | 0 mm | - | 34 W/m² | - |
| 1778019783 | 25.56° C | 42% | 1005 hPa | 0 mm | - | 42 W/m² | - |
| 1778019481 | 25.56° C | 41% | 1005 hPa | 0 mm | - | 50 W/m² | - |
| 1778019177 | 25.56° C | 41% | 1004.9 hPa | 0 mm | - | 78 W/m² | - |
| 1778018874 | 25.56° C | 40% | 1004.6 hPa | 0 mm | - | 78 W/m² | - |
| 1778018572 | 26.11° C | 40% | 1004.7 hPa | 0 mm | - | 76 W/m² | - |
| 1778018270 | 26.11° C | 41% | 1004.8 hPa | 0 mm | - | 140 W/m² | - |
| 1778017967 | 26.11° C | 39% | 1004.8 hPa | 0 mm | - | 117 W/m² | - |
| 1778017665 | 26.11° C | 39% | 1004.6 hPa | 0 mm | - | 96 W/m² | - |
| 1778017362 | 26.11° C | 39% | 1004.5 hPa | 0 mm | - | 120 W/m² | - |
| 1778017059 | 26.11° C | 39% | 1004.3 hPa | 0 mm | - | 102 W/m² | - |
| 1778016756 | 26.11° C | 38% | 1004.6 hPa | 0 mm | - | 114 W/m² | - |
| 1778016452 | 26.11° C | 38% | 1004.2 hPa | 0 mm | - | 116 W/m² | - |
| 1778016150 | 26.11° C | 38% | 1004.1 hPa | 0 mm | - | 115 W/m² | - |
| 1778015847 | 26.11° C | 38% | 1004.2 hPa | 0 mm | - | 104 W/m² | - |
| 1778015544 | 26.11° C | 38% | 1004.1 hPa | 0 mm | - | 110 W/m² | - |
| 1778015240 | 26.11° C | 38% | 1004.3 hPa | 0 mm | - | 125 W/m² | - |
| 1778014937 | 26.11° C | 38% | 1004.3 hPa | 0 mm | - | 125 W/m² | - |
| 1778014635 | 26.11° C | 38% | 1004.3 hPa | 0 mm | - | 121 W/m² | - |
| 1778014333 | 26.67° C | 38% | 1004.2 hPa | 0 mm | - | 123 W/m² | - |
| 1778014029 | 26.67° C | 37% | 1004.1 hPa | 0 mm | - | 120 W/m² | - |
| 1778013727 | 26.67° C | 37% | 1004.1 hPa | 0 mm | - | 153 W/m² | - |
* Rain latest hour (hover to see other rain measurements)
** Current wind speed in m/s (hover to see current wind gust speed)